2023/03/27 23:34:06+0000,-32.67,-46.45,-35.43,-44.38,-50.35,-54.78
2023/03/27 23:34:58+0000,-32.63,-45.93,-36.10,-44.79,-50.68,-53.51
2023/03/27 23:35:50+0000,-33.27,-46.57,-35.95,-45.32,-49.50,-53.15
2023/03/27 23:36:42+0000,-32.38,-46.05,-36.16,-45.19,-50.72,-55.19
2023/03/27 23:37:34+0000,-33.04,-46.01,-35.87,-45.23,-49.98,-53.97
2023/03/27 23:38:26+0000,-32.72,-45.72,-36.01,-45.48,-51.67,-53.61
2023/03/27 23:39:18+0000,-33.39,-45.53,-35.86,-45.75,-50.18,-53.08
2023/03/27 23:40:11+0000,-32.35,-46.51,-36.48,-44.67,-52.02,-52.10
2023/03/27 23:41:09+0000,-32.92,-46.23,-35.93,-45.23,-26.89,-53.96
2023/03/27 23:42:01+0000,-32.42,-46.78,-36.29,-44.52,-51.70,-54.05
2023/03/27 23:42:53+0000,-32.67,-46.33,-36.21,-44.04,-48.47,-54.15
2023/03/27 23:43:45+0000,-33.90,-45.38,-35.96,-45.09,-50.50,-52.24
2023/03/27 23:44:37+0000,-32.88,-47.22,-36.86,-44.42,-49.04,-47.59
2023/03/27 23:45:29+0000,-32.08,-46.50,-36.00,-44.73,-49.14,-52.93
2023/03/27 23:46:21+0000,-32.17,-46.66,-36.54,-44.13,-48.97,-50.11
2023/03/27 23:47:13+0000,-32.67,-45.87,-36.99,-44.36,-49.77,-51.44
2023/03/27 23:48:05+0000,-32.35,-44.72,-35.88,-44.30,-49.80,-50.85
2023/03/27 23:48:57+0000,-31.88,-46.01,-36.12,-43.96,-50.91,-50.72
2023/03/27 23:49:50+0000,-32.49,-46.49,-36.78,-44.32,-48.93,-50.53
2023/03/27 23:50:42+0000,-33.33,-45.34,-36.65,-44.25,-51.95,-53.95
2023/03/27 23:51:40+0000,-32.24,-45.68,-36.06,-43.88,-51.57,-53.50
2023/03/27 23:52:32+0000,-32.62,-45.05,-36.15,-43.89,-51.48,-55.15
2023/03/27 23:53:24+0000,-32.19,-45.92,-36.41,-44.32,-49.69,-53.20
2023/03/27 23:54:16+0000,-32.74,-46.01,-36.81,-44.51,-49.58,-55.33
2023/03/27 23:55:08+0000,-33.06,-45.50,-36.10,-44.46,-49.61,-53.73
2023/03/27 23:56:00+0000,-32.52,-46.61,-36.89,-44.37,-51.18,-52.89
2023/03/27 23:56:52+0000,-32.40,-45.92,-35.79,-44.63,-48.64,-52.93
2023/03/27 23:57:44+0000,-32.32,-45.35,-36.49,-43.35,-49.49,-53.48
2023/03/27 23:58:36+0000,-31.94,-46.11,-36.13,-44.67,-50.49,-52.83
2023/03/27 23:59:28+0000,-32.33,-46.56,-36.49,-43.89,-51.21,-54.43
2023/03/28 00:00:21+0000,-32.66,-46.59,-38.04,-44.05,-47.10,-54.32
2023/03/28 00:01:23+0000,-32.21,-47.42,-37.50,-43.59,-48.53,-54.62
2023/03/28 00:02:15+0000,-32.52,-46.26,-38.11,-43.48,-47.97,-54.47
2023/03/28 00:03:07+0000,-32.75,-46.57,-38.10,-44.07,-50.33,-53.57
2023/03/28 00:03:59+0000,-31.93,-46.95,-37.89,-43.89,-51.52,-52.62
2023/03/28 00:04:51+0000,-32.06,-46.96,-37.20,-42.84,-48.48,-52.35
2023/03/28 00:05:43+0000,-31.73,-46.13,-37.92,-43.46,-47.58,-50.57
2023/03/28 00:06:35+0000,-31.72,-47.31,-37.27,-43.23,-50.17,-51.34
2023/03/28 00:07:27+0000,-31.90,-46.59,-37.60,-43.51,-50.76,-48.24
2023/03/28 00:08:19+0000,-31.62,-45.96,-37.10,-43.68,-47.44,-52.19
2023/03/28 00:09:11+0000,-31.30,-45.81,-37.12,-43.34,-49.35,-48.17
2023/03/28 00:10:03+0000,-32.16,-45.31,-37.65,-43.97,-51.68,-51.45
2023/03/28 00:11:03+0000,-31.87,-46.08,-37.46,-44.06,-50.19,-51.61
2023/03/28 00:11:55+0000,-31.64,-46.13,-37.69,-43.12,-51.98,-52.32
2023/03/28 00:12:47+0000,-32.12,-46.63,-37.34,-43.20,-49.40,-52.69
2023/03/28 00:13:39+0000,-31.85,-47.00,-37.73,-43.47,-52.17,-50.89
2023/03/28 00:14:31+0000,-32.07,-47.28,-36.81,-43.54,-51.10,-53.28
2023/03/28 00:15:23+0000,-32.41,-46.60,-37.35,-43.46,-49.48,-52.38
2023/03/28 00:16:15+0000,-32.18,-46.53,-37.57,-43.64,-50.00,-52.66
2023/03/28 00:17:07+0000,-31.47,-46.47,-38.08,-43.01,-50.82,-51.88
2023/03/28 00:17:59+0000,-31.95,-45.66,-37.79,-43.88,-50.74,-52.03
2023/03/28 00:18:51+0000,-32.12,-46.16,-37.04,-42.97,-47.95,-53.40
2023/03/28 00:19:44+0000,-31.26,-45.39,-37.50,-43.46,-48.36,-50.78
2023/03/28 00:20:36+0000,-32.46,-46.41,-37.83,-43.46,-50.41,-51.59
2023/03/28 00:21:35+0000,-31.97,-46.00,-37.25,-43.61,-49.62,-51.18
2023/03/28 00:22:27+0000,-32.13,-46.86,-38.11,-42.53,-51.41,-52.57
2023/03/28 00:23:19+0000,-32.29,-45.14,-37.26,-43.36,-50.12,-52.10
2023/03/28 00:24:11+0000,-31.84,-45.26,-37.83,-41.93,-52.20,-52.11
2023/03/28 00:25:03+0000,-31.59,-46.98,-38.04,-43.86,-51.36,-53.84
2023/03/28 00:25:55+0000,-31.52,-46.67,-37.76,-42.76,-51.28,-51.69
2023/03/28 00:26:47+0000,-31.87,-46.53,-37.95,-43.46,-49.94,-53.29
2023/03/28 00:27:39+0000,-32.20,-45.43,-36.78,-42.83,-49.57,-50.52
2023/03/28 00:28:31+0000,-31.71,-47.06,-37.07,-43.25,-49.93,-51.35
2023/03/28 00:29:23+0000,-32.23,-46.73,-37.21,-43.06,-48.26,-51.38
2023/03/28 00:30:15+0000,-32.47,-43.69,-37.93,-42.49,-48.04,-52.02
2023/03/28 00:31:13+0000,-31.35,-45.94,-37.14,-42.22,-48.57,-49.51
2023/03/28 00:32:05+0000,-32.48,-47.32,-36.82,-42.87,-48.50,-50.54
2023/03/28 00:32:57+0000,-31.86,-45.29,-37.33,-43.08,-51.53,-51.41
2023/03/28 00:33:49+0000,-31.63,-45.76,-37.93,-43.76,-48.91,-52.11
2023/03/28 00:34:41+0000,-32.60,-44.51,-36.77,-43.49,-52.07,-49.63
2023/03/28 00:35:33+0000,-32.37,-45.92,-37.03,-42.91,-50.75,-50.41
2023/03/28 00:36:26+0000,-32.18,-44.60,-37.26,-43.47,-50.97,-51.94
2023/03/28 00:37:18+0000,-31.53,-43.89,-36.63,-42.75,-49.13,-52.93
2023/03/28 00:38:10+0000,-31.51,-43.59,-37.15,-40.55,-48.59,-50.55
2023/03/28 00:39:02+0000,-32.12,-46.47,-37.59,-43.62,-49.16,-53.37
2023/03/28 00:39:54+0000,-32.62,-45.61,-37.16,-43.52,-48.75,-51.78
2023/03/28 00:40:46+0000,-31.70,-44.94,-37.23,-42.24,-49.92,-49.79
2023/03/28 00:41:44+0000,-31.99,-43.62,-37.20,-42.41,-49.93,-51.85
2023/03/28 00:42:36+0000,-32.08,-46.72,-37.62,-42.92,-49.32,-51.66
2023/03/28 00:43:28+0000,-32.06,-45.12,-37.20,-42.68,-50.65,-51.94
2023/03/28 00:44:20+0000,-32.55,-46.08,-37.12,-44.00,-49.54,-52.05
2023/03/28 00:45:12+0000,-31.89,-46.83,-37.15,-42.74,-49.27,-51.13
2023/03/28 00:46:04+0000,-32.41,-46.92,-37.18,-44.13,-50.64,-52.65
2023/03/28 00:46:56+0000,-30.98,-46.87,-36.02,-41.96,-51.39,-51.53
2023/03/28 00:47:48+0000,-31.54,-45.89,-36.67,-42.61,-48.08,-52.84
2023/03/28 00:48:40+0000,-31.37,-46.64,-36.88,-42.35,-50.36,-52.12
2023/03/28 00:49:32+0000,-32.00,-46.67,-36.94,-42.72,-49.60,-52.78
2023/03/28 00:50:25+0000,-31.97,-47.01,-35.75,-42.58,-49.23,-52.22
2023/03/28 00:51:23+0000,-31.82,-46.46,-36.19,-42.61,-49.17,-52.02
2023/03/28 00:52:15+0000,-31.86,-45.18,-37.68,-42.03,-47.80,-51.50
2023/03/28 00:53:07+0000,-32.55,-47.00,-37.28,-42.20,-49.67,-52.31
2023/03/28 00:53:59+0000,-32.70,-45.11,-37.81,-43.73,-49.33,-51.39
2023/03/28 00:54:51+0000,-31.82,-47.42,-36.28,-43.67,-48.24,-51.84
2023/03/28 00:55:43+0000,-32.26,-45.73,-37.27,-41.17,-48.39,-51.59
2023/03/28 00:56:35+0000,-32.03,-44.93,-37.20,-43.37,-48.68,-52.61
2023/03/28 00:57:27+0000,-31.67,-46.05,-36.86,-42.91,-50.16,-51.20
2023/03/28 00:58:19+0000,-32.84,-46.45,-36.84,-43.41,-49.45,-51.29
2023/03/28 00:59:11+0000,-31.97,-46.41,-36.98,-41.66,-50.17,-51.88
2023/03/28 01:00:04+0000,-32.71,-46.19,-36.86,-42.63,-49.78,-52.34
2023/03/28 01:01:04+0000,-31.41,-45.60,-37.63,-43.16,-49.53,-52.43
2023/03/28 01:01:56+0000,-31.77,-45.61,-37.48,-41.24,-50.21,-50.35
2023/03/28 01:02:48+0000,-31.69,-46.65,-37.04,-43.69,-48.65,-50.18
2023/03/28 01:03:40+0000,-32.81,-46.66,-37.19,-43.87,-51.58,-51.69
2023/03/28 01:04:32+0000,-32.55,-47.33,-37.23,-43.63,-48.98,-51.78
2023/03/28 01:05:24+0000,-32.05,-47.78,-37.04,-43.09,-51.13,-50.05
2023/03/28 01:06:16+0000,-32.67,-45.86,-36.04,-44.33,-49.24,-52.67
2023/03/28 01:07:08+0000,-32.18,-46.97,-37.68,-43.78,-50.96,-51.48
2023/03/28 01:08:00+0000,-32.37,-45.32,-37.88,-43.62,-49.97,-51.45
2023/03/28 01:08:52+0000,-32.66,-45.99,-37.41,-43.88,-49.36,-51.91
2023/03/28 01:09:45+0000,-32.75,-47.76,-36.72,-43.93,-50.26,-52.01
2023/03/28 01:10:37+0000,-32.40,-46.56,-36.55,-42.83,-49.35,-52.23
2023/03/28 01:11:35+0000,-32.75,-47.26,-36.31,-45.15,-49.38,-50.25
2023/03/28 01:12:27+0000,-32.21,-46.52,-37.42,-44.50,-48.69,-51.46
2023/03/28 01:13:19+0000,-32.72,-46.94,-36.33,-45.29,-49.96,-50.69
2023/03/28 01:14:11+0000,-32.74,-47.36,-36.28,-43.07,-50.73,-51.92
2023/03/28 01:15:03+0000,-32.33,-47.33,-35.96,-44.93,-49.61,-52.25
2023/03/28 01:15:55+0000,-32.19,-46.40,-36.73,-44.34,-49.80,-50.23
2023/03/28 01:16:47+0000,-31.96,-46.03,-36.66,-43.97,-49.64,-52.86
2023/03/28 01:17:39+0000,-32.43,-47.38,-35.97,-43.81,-50.79,-51.73
2023/03/28 01:18:31+0000,-32.12,-46.38,-36.41,-44.39,-49.39,-52.79
2023/03/28 01:19:23+0000,-32.42,-46.31,-36.48,-43.96,-49.02,-50.94
2023/03/28 01:20:16+0000,-32.43,-46.66,-36.84,-43.65,-50.02,-52.77
2023/03/28 01:21:15+0000,-32.63,-46.26,-36.50,-44.56,-49.37,-52.97
2023/03/28 01:22:07+0000,-32.30,-47.35,-36.50,-44.76,-48.90,-52.23
2023/03/28 01:22:59+0000,-32.05,-45.59,-37.97,-44.70,-48.83,-49.14
2023/03/28 01:23:51+0000,-31.79,-47.47,-36.79,-44.79,-49.49,-51.69
2023/03/28 01:24:43+0000,-31.71,-46.92,-37.90,-44.43,-49.34,-50.08
2023/03/28 01:25:35+0000,-32.18,-45.90,-36.25,-45.57,-48.89,-51.68
2023/03/28 01:26:27+0000,-31.96,-47.17,-37.55,-43.58,-49.98,-51.12
2023/03/28 01:27:19+0000,-32.30,-46.90,-35.55,-45.99,-50.76,-51.23
2023/03/28 01:28:11+0000,-31.67,-46.16,-37.31,-45.07,-50.59,-48.86
2023/03/28 01:29:03+0000,-32.37,-47.22,-37.20,-45.04,-49.24,-50.42
2023/03/28 01:29:55+0000,-30.79,-45.22,-36.03,-44.29,-50.47,-49.74
2023/03/28 01:30:47+0000,-30.30,-44.54,-35.85,-44.42,-49.68,-53.21
2023/03/28 01:31:46+0000,-31.89,-47.31,-35.35,-44.06,-50.26,-51.68
2023/03/28 01:32:38+0000,-32.07,-46.79,-37.95,-44.48,-50.27,-51.38
2023/03/28 01:33:30+0000,-32.20,-47.73,-37.23,-44.75,-49.58,-50.32
2023/03/28 01:34:22+0000,-31.13,-48.06,-36.44,-42.44,-50.27,-51.54
2023/03/28 01:35:14+0000,-32.53,-47.38,-37.68,-41.57,-49.17,-52.45
2023/03/28 01:36:06+0000,-32.43,-46.97,-37.06,-44.62,-49.46,-51.43
2023/03/28 01:36:58+0000,-32.21,-47.54,-38.28,-44.61,-49.67,-53.23
2023/03/28 01:37:50+0000,-31.86,-46.36,-36.55,-44.30,-50.03,-52.59
2023/03/28 01:38:42+0000,-31.75,-46.22,-37.13,-43.22,-50.38,-52.78
2023/03/28 01:39:34+0000,-32.42,-45.65,-37.20,-44.81,-49.04,-52.23
2023/03/28 01:40:26+0000,-31.90,-46.29,-36.74,-43.24,-50.27,-52.91
2023/03/28 01:41:26+0000,-32.31,-45.99,-36.64,-43.46,-49.98,-53.04
2023/03/28 01:42:18+0000,-32.39,-46.25,-36.89,-43.37,-48.60,-54.17
2023/03/28 01:43:10+0000,-32.27,-46.90,-37.56,-42.12,-49.22,-51.86
2023/03/28 01:44:02+0000,-31.95,-46.29,-37.41,-43.59,-49.17,-52.89
2023/03/28 01:44:54+0000,-31.74,-46.77,-36.52,-44.54,-50.40,-52.30
2023/03/28 01:45:46+0000,-32.29,-46.02,-37.55,-41.17,-50.41,-52.14
2023/03/28 01:46:38+0000,-32.46,-46.96,-38.29,-43.59,-49.96,-52.25
2023/03/28 01:47:30+0000,-32.84,-46.04,-38.31,-43.14,-49.70,-51.82
2023/03/28 01:48:22+0000,-32.23,-45.25,-37.38,-42.76,-49.73,-52.00
2023/03/28 01:49:14+0000,-31.68,-46.57,-38.67,-42.36,-50.22,-52.13
2023/03/28 01:50:06+0000,-32.44,-46.18,-37.80,-42.79,-49.58,-51.97
2023/03/28 01:51:06+0000,-32.83,-46.04,-37.59,-42.22,-50.24,-52.51
2023/03/28 01:51:58+0000,-31.35,-44.52,-37.76,-42.46,-50.82,-53.03
2023/03/28 01:52:50+0000,-32.01,-45.47,-37.51,-43.02,-50.30,-52.34
2023/03/28 01:53:42+0000,-32.65,-45.07,-37.47,-42.04,-50.95,-52.88
2023/03/28 01:54:34+0000,-32.65,-45.90,-37.48,-43.25,-49.39,-53.43
2023/03/28 01:55:26+0000,-33.10,-45.83,-37.59,-41.30,-50.78,-52.70
2023/03/28 01:56:18+0000,-32.52,-44.50,-36.67,-39.29,-50.63,-52.63
2023/03/28 01:57:11+0000,-32.30,-44.68,-35.34,-38.60,-51.10,-52.79
2023/03/28 01:58:03+0000,-32.60,-45.82,-35.63,-40.32,-49.97,-53.58
2023/03/28 01:58:55+0000,-32.49,-45.81,-36.10,-41.05,-50.45,-53.29
2023/03/28 01:59:47+0000,-32.67,-46.06,-36.89,-40.48,-49.63,-53.73
2023/03/28 02:00:39+0000,-32.90,-46.43,-36.88,-39.64,-48.87,-52.91
2023/03/28 02:01:42+0000,-32.94,-44.60,-37.67,-40.02,-50.04,-53.97
2023/03/28 02:02:34+0000,-32.31,-45.14,-36.03,-41.19,-49.42,-53.59
2023/03/28 02:03:26+0000,-32.50,-46.10,-38.20,-41.85,-50.01,-52.30
2023/03/28 02:04:18+0000,-32.48,-45.24,-36.65,-40.91,-50.75,-52.38
2023/03/28 02:05:10+0000,-32.57,-44.89,-37.49,-39.68,-50.69,-52.92
2023/03/28 02:06:02+0000,-32.73,-44.99,-36.74,-40.37,-49.85,-54.01
2023/03/28 02:06:54+0000,-31.91,-44.68,-36.79,-40.53,-50.88,-52.07
2023/03/28 02:07:46+0000,-32.66,-44.61,-36.73,-39.67,-49.98,-53.57
2023/03/28 02:08:38+0000,-32.52,-43.85,-36.54,-39.58,-49.98,-53.77
2023/03/28 02:09:30+0000,-32.33,-43.88,-36.41,-40.55,-49.05,-54.12
2023/03/28 02:10:22+0000,-31.10,-45.60,-36.80,-40.96,-49.88,-53.24
2023/03/28 02:11:22+0000,-31.26,-44.35,-37.21,-40.96,-49.92,-53.60
2023/03/28 02:12:14+0000,-33.44,-45.10,-36.80,-38.15,-50.40,-51.92
2023/03/28 02:13:06+0000,-31.77,-44.98,-36.40,-40.05,-49.44,-53.16
2023/03/28 02:13:58+0000,-31.88,-45.45,-36.45,-40.11,-50.57,-53.49
2023/03/28 02:14:50+0000,-30.67,-45.07,-36.35,-40.46,-49.85,-53.73
2023/03/28 02:15:42+0000,-32.62,-45.22,-36.93,-40.08,-51.02,-53.17
2023/03/28 02:16:34+0000,-32.62,-45.75,-36.12,-41.72,-50.95,-53.92
2023/03/28 02:17:26+0000,-31.37,-45.20,-35.98,-40.10,-51.23,-53.61
2023/03/28 02:18:18+0000,-31.63,-43.63,-36.28,-42.08,-50.41,-53.39
2023/03/28 02:19:10+0000,-32.76,-45.81,-35.61,-38.71,-50.91,-53.29
2023/03/28 02:20:02+0000,-32.58,-45.47,-36.60,-40.01,-49.46,-52.86
2023/03/28 02:21:02+0000,-33.07,-46.39,-36.00,-39.55,-50.67,-53.86
2023/03/28 02:21:54+0000,-30.71,-46.11,-35.88,-39.92,-49.07,-53.54
2023/03/28 02:22:46+0000,-33.14,-46.31,-35.82,-38.47,-50.49,-53.95
2023/03/28 02:23:38+0000,-32.87,-47.03,-35.63,-38.47,-50.29,-53.10
2023/03/28 02:24:30+0000,-32.00,-46.12,-36.06,-41.12,-50.14,-53.59
2023/03/28 02:25:22+0000,-31.65,-46.03,-36.43,-39.56,-49.66,-53.61
2023/03/28 02:26:14+0000,-32.64,-45.19,-36.52,-39.79,-47.42,-53.79
2023/03/28 02:27:06+0000,-32.96,-46.11,-36.53,-37.70,-50.11,-53.26
2023/03/28 02:27:58+0000,-30.36,-45.45,-36.65,-39.83,-50.45,-53.32
2023/03/28 02:28:50+0000,-32.17,-45.13,-36.11,-40.66,-48.88,-53.28
2023/03/28 02:29:42+0000,-32.88,-45.95,-36.67,-38.58,-51.07,-53.39
2023/03/28 02:30:34+0000,-32.65,-46.95,-35.72,-42.60,-51.64,-53.60
2023/03/28 02:31:33+0000,-32.89,-45.90,-36.19,-40.74,-50.60,-53.24
2023/03/28 02:32:25+0000,-32.60,-46.66,-35.37,-39.77,-51.46,-53.63
2023/03/28 02:33:17+0000,-32.05,-45.22,-35.93,-40.25,-50.98,-53.28
2023/03/28 02:34:09+0000,-32.26,-43.05,-35.92,-37.99,-50.36,-53.14
2023/03/28 02:35:01+0000,-32.37,-45.66,-35.38,-40.30,-49.28,-54.17
2023/03/28 02:35:53+0000,-33.13,-46.24,-35.24,-40.73,-48.86,-53.51
2023/03/28 02:36:45+0000,-32.99,-46.67,-35.01,-40.69,-50.81,-53.47
2023/03/28 02:37:37+0000,-31.57,-46.82,-35.46,-41.07,-49.00,-53.07
2023/03/28 02:38:29+0000,-32.24,-46.03,-35.80,-40.88,-48.29,-51.90
2023/03/28 02:39:21+0000,-32.05,-45.34,-35.86,-41.08,-50.01,-52.37
2023/03/28 02:40:14+0000,-31.80,-44.18,-36.78,-40.47,-49.36,-51.96
2023/03/28 02:41:13+0000,-32.43,-44.12,-35.76,-38.42,-49.55,-52.37
2023/03/28 02:42:05+0000,-32.43,-45.18,-35.47,-42.06,-49.23,-51.83
2023/03/28 02:42:57+0000,-32.26,-45.08,-36.98,-42.30,-50.16,-51.80
2023/03/28 02:43:49+0000,-30.17,-43.98,-35.79,-41.85,-48.02,-52.33
2023/03/28 02:44:41+0000,-31.45,-44.21,-34.04,-39.88,-49.31,-52.36
2023/03/28 02:45:33+0000,-31.10,-44.66,-34.67,-41.18,-49.83,-51.58
2023/03/28 02:46:25+0000,-31.78,-45.24,-36.01,-42.60,-48.15,-51.76
2023/03/28 02:47:17+0000,-33.27,-44.55,-36.57,-40.99,-49.31,-52.21
2023/03/28 02:48:09+0000,-30.84,-44.46,-35.82,-40.81,-50.01,-52.15
2023/03/28 02:49:01+0000,-31.88,-44.64,-35.61,-42.00,-49.51,-51.79
2023/03/28 02:49:53+0000,-33.12,-45.37,-35.57,-41.78,-49.02,-51.80
2023/03/28 02:50:45+0000,-32.65,-44.62,-35.63,-40.53,-49.21,-51.76
2023/03/28 02:51:44+0000,-32.18,-44.12,-36.40,-42.14,-48.94,-51.04
2023/03/28 02:52:36+0000,-32.38,-44.01,-35.34,-43.31,-49.27,-51.71
2023/03/28 02:53:28+0000,-31.73,-44.48,-36.53,-41.78,-49.63,-51.74
2023/03/28 02:54:20+0000,-31.41,-43.30,-36.14,-41.47,-48.70,-52.17
2023/03/28 02:55:12+0000,-32.74,-43.26,-35.38,-40.80,-49.48,-52.20
2023/03/28 02:56:04+0000,-32.36,-45.50,-34.98,-41.85,-49.24,-51.79
2023/03/28 02:56:56+0000,-31.14,-44.58,-36.41,-42.52,-49.48,-52.02
2023/03/28 02:57:48+0000,-30.35,-43.04,-36.96,-40.00,-49.30,-51.59
2023/03/28 02:58:40+0000,-33.07,-43.63,-35.29,-39.75,-49.53,-52.19
2023/03/28 02:59:32+0000,-32.15,-45.16,-34.53,-41.49,-50.01,-51.88
2023/03/28 03:00:24+0000,-30.58,-44.75,-35.99,-42.05,-50.21,-51.61
2023/03/28 03:01:25+0000,-31.42,-45.09,-36.60,-38.89,-49.16,-52.02
2023/03/28 03:02:17+0000,-31.68,-45.04,-36.04,-38.50,-49.26,-52.45
2023/03/28 03:03:09+0000,-32.13,-45.26,-35.05,-40.19,-49.85,-52.37
2023/03/28 03:04:01+0000,-32.17,-45.10,-35.24,-42.46,-49.62,-51.49
2023/03/28 03:04:53+0000,-31.41,-45.80,-35.88,-41.79,-48.82,-51.98
2023/03/28 03:05:45+0000,-31.78,-44.77,-35.33,-41.70,-49.37,-51.59
2023/03/28 03:06:37+0000,-31.80,-43.93,-35.10,-40.80,-49.94,-51.61
2023/03/28 03:07:29+0000,-31.94,-45.59,-35.12,-41.17,-49.64,-51.23
2023/03/28 03:08:21+0000,-30.09,-46.68,-36.12,-42.12,-49.91,-51.66
2023/03/28 03:09:13+0000,-31.98,-45.31,-36.08,-40.70,-50.42,-51.51
2023/03/28 03:10:06+0000,-32.53,-46.63,-35.71,-40.59,-49.75,-52.09
2023/03/28 03:11:05+0000,-32.07,-46.40,-35.66,-41.13,-49.83,-51.26
2023/03/28 03:11:57+0000,-31.79,-45.55,-36.35,-41.03,-50.29,-51.87
2023/03/28 03:12:49+0000,-31.70,-45.46,-35.89,-41.30,-49.64,-51.22
2023/03/28 03:13:41+0000,-31.77,-45.51,-36.07,-39.97,-49.56,-52.23
2023/03/28 03:14:33+0000,-32.86,-45.23,-35.63,-41.34,-49.53,-51.61
2023/03/28 03:15:25+0000,-32.18,-45.36,-34.88,-40.19,-50.00,-50.90
2023/03/28 03:16:17+0000,-32.40,-45.44,-35.57,-39.73,-50.24,-51.46
2023/03/28 03:17:09+0000,-31.86,-45.60,-35.60,-41.51,-49.75,-51.66
2023/03/28 03:18:01+0000,-32.96,-44.03,-35.49,-40.53,-50.03,-51.84
2023/03/28 03:18:53+0000,-31.53,-43.70,-35.89,-40.48,-48.99,-51.58
2023/03/28 03:19:46+0000,-32.92,-44.17,-36.27,-40.95,-49.76,-51.85
2023/03/28 03:20:38+0000,-31.26,-45.11,-35.55,-41.20,-50.34,-51.83
2023/03/28 03:21:36+0000,-32.11,-46.36,-35.71,-41.65,-50.86,-52.07
2023/03/28 03:22:28+0000,-32.21,-43.20,-35.91,-38.73,-49.65,-51.63
2023/03/28 03:23:20+0000,-32.05,-45.52,-35.73,-42.20,-50.40,-51.87
2023/03/28 03:24:12+0000,-32.84,-44.24,-36.06,-41.46,-49.89,-52.06
2023/03/28 03:25:04+0000,-32.17,-42.76,-35.58,-42.86,-50.03,-52.59
2023/03/28 03:25:56+0000,-32.36,-43.42,-35.99,-40.71,-49.52,-51.81
2023/03/28 03:26:48+0000,-32.92,-39.01,-35.79,-41.89,-49.45,-52.30
2023/03/28 03:27:40+0000,-32.03,-39.27,-35.44,-40.78,-49.02,-52.44
2023/03/28 03:28:32+0000,-31.99,-42.85,-34.85,-41.05,-49.04,-51.74
2023/03/28 03:29:24+0000,-31.53,-43.15,-35.85,-41.60,-48.80,-51.34
2023/03/28 03:30:16+0000,-31.19,-43.57,-36.47,-41.17,-49.24,-52.32
2023/03/28 03:31:15+0000,-32.02,-44.39,-35.63,-39.49,-49.39,-52.01
2023/03/28 03:32:07+0000,-32.14,-45.56,-35.41,-41.22,-49.15,-52.00
2023/03/28 03:32:59+0000,-30.86,-43.08,-36.65,-42.28,-49.35,-51.99
2023/03/28 03:33:51+0000,-32.26,-44.99,-35.64,-42.71,-49.11,-52.34
2023/03/28 03:34:43+0000,-31.48,-42.88,-35.81,-42.34,-48.38,-52.74
2023/03/28 03:35:35+0000,-31.74,-43.10,-35.86,-43.57,-49.03,-52.34
2023/03/28 03:36:27+0000,-31.82,-42.37,-35.98,-40.89,-49.19,-52.04
2023/03/28 03:37:19+0000,-32.19,-44.84,-35.62,-42.71,-48.92,-52.09
2023/03/28 03:38:11+0000,-32.26,-44.54,-35.87,-41.27,-49.26,-52.67
2023/03/28 03:39:03+0000,-31.12,-42.86,-36.43,-42.04,-49.61,-52.17
2023/03/28 03:39:55+0000,-32.26,-42.92,-34.69,-42.38,-49.29,-52.15
2023/03/28 03:40:47+0000,-31.86,-44.57,-35.37,-41.70,-49.15,-51.86
2023/03/28 03:41:46+0000,-31.90,-45.39,-36.23,-39.27,-50.36,-51.95
2023/03/28 03:42:38+0000,-32.22,-46.34,-36.16,-41.24,-49.52,-52.61
2023/03/28 03:43:30+0000,-32.00,-43.31,-35.84,-42.28,-49.34,-51.97
2023/03/28 03:44:22+0000,-32.05,-44.78,-35.51,-41.71,-49.58,-51.76
2023/03/28 03:45:14+0000,-30.49,-44.15,-37.12,-40.83,-49.76,-51.95
2023/03/28 03:46:06+0000,-30.53,-42.83,-35.21,-41.98,-48.78,-52.40
2023/03/28 03:46:58+0000,-32.35,-42.10,-35.99,-41.17,-49.80,-52.83
2023/03/28 03:47:50+0000,-32.12,-44.08,-34.78,-41.85,-49.74,-52.15
2023/03/28 03:48:42+0000,-29.40,-44.30,-36.10,-40.25,-49.89,-52.44
2023/03/28 03:49:34+0000,-28.32,-43.28,-36.15,-41.71,-49.18,-52.45
2023/03/28 03:50:26+0000,-31.83,-43.31,-34.90,-41.25,-49.31,-52.81
2023/03/28 03:51:25+0000,-32.32,-43.31,-35.66,-40.98,-50.19,-53.08
2023/03/28 03:52:17+0000,-32.49,-44.37,-35.32,-40.46,-49.43,-52.61
2023/03/28 03:53:09+0000,-30.96,-44.82,-36.26,-40.60,-50.73,-52.52
2023/03/28 03:54:01+0000,-31.88,-42.93,-36.16,-40.93,-50.79,-52.17
2023/03/28 03:54:53+0000,-31.43,-44.96,-35.93,-41.88,-49.66,-52.41
2023/03/28 03:55:45+0000,-32.49,-41.37,-36.33,-40.22,-49.63,-52.82
2023/03/28 03:56:37+0000,-32.20,-43.81,-36.19,-41.19,-49.60,-51.85
2023/03/28 03:57:29+0000,-32.39,-43.96,-36.70,-40.84,-49.78,-51.43
2023/03/28 03:58:21+0000,-32.39,-43.65,-35.90,-41.39,-50.29,-51.40
2023/03/28 03:59:13+0000,-31.40,-43.97,-35.78,-40.13,-50.16,-51.83
2023/03/28 04:00:05+0000,-32.24,-43.08,-35.74,-42.78,-50.01,-52.63
2023/03/28 04:01:06+0000,-32.27,-45.10,-35.91,-39.60,-49.57,-51.42
2023/03/28 04:01:58+0000,-32.26,-42.98,-36.33,-41.49,-49.49,-51.99
2023/03/28 04:02:50+0000,-32.75,-45.20,-36.60,-41.26,-49.91,-52.53
2023/03/28 04:03:42+0000,-32.00,-44.47,-37.35,-38.85,-49.51,-51.81
2023/03/28 04:04:34+0000,-31.36,-43.48,-35.88,-42.31,-49.74,-51.95
2023/03/28 04:05:26+0000,-32.22,-44.25,-36.09,-42.08,-49.55,-52.14
2023/03/28 04:06:18+0000,-32.15,-43.78,-35.78,-41.61,-49.46,-52.29
2023/03/28 04:07:10+0000,-32.42,-43.96,-36.51,-41.64,-49.61,-52.01
2023/03/28 04:08:02+0000,-32.00,-41.13,-36.53,-41.42,-49.86,-52.01
2023/03/28 04:08:54+0000,-31.98,-37.06,-35.92,-40.82,-49.61,-52.01
2023/03/28 04:09:46+0000,-32.80,-44.68,-35.99,-39.13,-49.64,-51.98
2023/03/28 04:10:38+0000,-31.86,-44.16,-36.05,-39.98,-50.28,-51.48
2023/03/28 04:11:37+0000,-31.33,-45.64,-37.04,-39.01,-49.52,-51.38
2023/03/28 04:12:29+0000,-32.50,-45.01,-36.15,-38.38,-49.76,-52.19
2023/03/28 04:13:21+0000,-32.52,-45.29,-35.85,-39.16,-49.68,-51.65
2023/03/28 04:14:13+0000,-31.91,-44.15,-36.46,-38.71,-49.01,-52.18
2023/03/28 04:15:05+0000,-31.83,-45.19,-36.23,-38.93,-49.81,-52.10
2023/03/28 04:15:57+0000,-31.90,-44.61,-36.53,-38.37,-49.87,-51.91
2023/03/28 04:16:49+0000,-31.64,-43.47,-36.41,-39.09,-49.57,-52.35
2023/03/28 04:17:41+0000,-32.16,-43.31,-36.77,-38.98,-49.78,-52.26
2023/03/28 04:18:33+0000,-32.32,-44.76,-36.61,-40.16,-49.15,-52.49
2023/03/28 04:19:25+0000,-31.98,-44.94,-35.95,-38.63,-49.45,-51.93
2023/03/28 04:20:18+0000,-31.84,-46.20,-36.56,-39.62,-49.97,-52.19
2023/03/28 04:21:17+0000,-31.71,-46.41,-36.44,-39.36,-50.76,-52.35
2023/03/28 04:22:09+0000,-32.13,-46.06,-36.88,-40.50,-49.85,-52.30
2023/03/28 04:23:01+0000,-32.25,-44.81,-36.53,-39.65,-49.39,-52.38
2023/03/28 04:23:53+0000,-31.43,-44.55,-36.22,-39.66,-50.01,-51.98
2023/03/28 04:24:45+0000,-31.17,-44.71,-36.22,-39.76,-49.69,-52.08
2023/03/28 04:25:37+0000,-30.87,-46.53,-36.56,-42.73,-50.26,-52.82
2023/03/28 04:26:29+0000,-32.33,-44.22,-36.37,-43.59,-50.16,-52.28
2023/03/28 04:27:21+0000,-32.47,-46.31,-36.75,-42.33,-50.23,-51.37
2023/03/28 04:28:13+0000,-31.25,-44.75,-36.54,-42.07,-49.99,-51.49
2023/03/28 04:29:05+0000,-31.29,-42.21,-36.78,-43.02,-50.54,-51.23
2023/03/28 04:29:58+0000,-31.65,-42.74,-37.58,-43.54,-50.11,-51.64
2023/03/28 04:30:50+0000,-31.54,-42.05,-35.75,-43.59,-50.13,-50.90
2023/03/28 04:31:49+0000,-32.00,-41.48,-35.74,-42.48,-50.58,-51.39
2023/03/28 04:32:41+0000,-32.18,-42.51,-37.16,-42.53,-50.31,-51.32
2023/03/28 04:33:33+0000,-35.40,-44.28,-37.01,-45.74,-50.53,-52.25
2023/03/28 04:34:25+0000,-37.40,-44.01,-37.03,-47.69,-50.57,-52.11
2023/03/28 04:35:17+0000,-35.90,-41.41,-37.40,-47.37,-50.15,-50.86
2023/03/28 04:36:09+0000,-35.62,-42.47,-37.18,-48.28,-50.69,-51.34
2023/03/28 04:37:01+0000,-37.23,-44.15,-36.16,-46.82,-50.71,-51.38
2023/03/28 04:37:53+0000,-36.42,-44.48,-37.44,-46.62,-50.40,-52.27
2023/03/28 04:38:45+0000,-37.58,-42.01,-37.32,-46.97,-50.73,-52.31
2023/03/28 04:39:37+0000,-35.64,-45.54,-36.68,-46.58,-50.29,-51.72
2023/03/28 04:40:29+0000,-35.62,-43.68,-37.03,-46.82,-50.43,-51.77
2023/03/28 04:41:37+0000,-36.62,-46.73,-36.03,-47.19,-51.00,-51.96
2023/03/28 04:42:29+0000,-35.51,-43.63,-37.48,-47.19,-49.90,-51.17
2023/03/28 04:43:21+0000,-37.30,-43.98,-36.86,-47.62,-50.74,-52.19
2023/03/28 04:44:13+0000,-37.29,-43.48,-36.97,-47.16,-50.53,-52.39
2023/03/28 04:45:05+0000,-36.80,-41.59,-36.60,-50.12,-51.22,-52.36
2023/03/28 04:45:57+0000,-34.15,-42.68,-36.48,-48.09,-50.32,-52.73
2023/03/28 04:46:49+0000,-37.63,-42.74,-36.51,-50.03,-50.80,-53.35
2023/03/28 04:47:41+0000,-37.02,-45.26,-36.81,-49.19,-50.91,-52.97